Theta_e
314 314 314 314 314 314 314 314 314 314 314 314 314 314 314 313 313 313 313 312 312 311 311 311 310 310 310 310 310 310 309 309 309 309 309 309 309 308 308 307 306 306 305 304 304 303 303 302 302 303 303 303 303 303 304 304 305 306 306 306 306 306 305 304 303 305 306 305 306 306 306 306 306 305 305 306 306 306 306 306 306 306 306 306 305
314 314 314 314 314 314 314 314 314 314 314 314 313 313 313 313 313 312 312 311 311 310 310 310 310 310 310 309 309 309 309 309 309 308 307 307 306 305 304 303 302 302 301 301 300 300 300 299 299 299 299 299 299 299 299 300 300 301 301 302 302 303 303 303 302 303 304 302 302 303 302 302 302 302 303 304 304 304 305 305 305 305 306 305 305
314 314 314 314 314 314 314 314 314 314 313 313 313 313 313 312 311 311 310 310 310 310 310 310 310 310 309 309 309 308 308 307 305 304 303 303 302 301 301 300 300 300 299 299 298 298 298 297 297 297 297 297 297 297 296 296 296 297 297 297 297 297 298 300 301 301 300 298 298 298 297 298 298 298 299 300 300 300 301 302 303 303 304 304 304
314 314 314 314 314 314 314 313 313 313 313 313 312 312 312 311 311 310 310 310 310 310 310 309 309 309 308 307 306 305 304 303 302 301 301 301 300 300 299 299 298 298 297 297 297 296 296 296 296 296 296 296 296 296 296 295 295 295 295 295 295 295 295 296 297 297 297 296 296 296 296 295 296 296 296 297 296 297 297 298 299 299 300 301 301
314 314 314 314 314 313 313 313 313 313 312 312 312 311 311 310 310 310 310 310 310 309 309 309 308 307 305 304 303 302 302 301 301 301 301 300 300 299 299 298 297 297 297 296 296 296 296 296 296 296 295 295 296 295 295 295 295 295 295 294 294 294 294 294 294 295 295 295 295 295 295 295 295 295 295 295 295 295 295 296 296 295 296 297 297
314 314 314 313 314 313 313 313 312 312 312 311 311 310 310 310 310 309 310 309 309 308 308 306 305 304 302 302 301 301 301 301 301 301 301 300 300 299 298 297 297 297 296 296 296 296 296 296 296 295 295 295 295 295 295 295 295 294 294 294 294 293 293 293 293 293 294 294 293 294 294 294 294 294 294 294 294 294 294 294 294 294 295 295 295
314 313 313 313 313 313 313 312 312 312 311 311 310 310 310 310 309 309 309 308 307 306 305 304 302 301 301 301 301 301 301 301 301 300 300 299 298 297 297 297 296 296 296 296 296 296 295 295 295 295 295 295 295 295 294 294 294 294 293 293 293 293 292 292 292 292 292 293 293 293 293 293 293 293 293 293 293 293 293 294 294 293 294 294 294
313 313 313 313 313 313 312 312 311 311 310 310 310 310 310 309 309 308 307 306 304 303 302 301 301 301 301 301 301 301 300 299 299 298 297 297 296 296 296 296 296 296 296 296 295 295 295 295 295 294 294 294 294 294 294 293 293 293 293 292 292 292 292 292 292 292 292 292 292 292 292 292 292 293 293 292 292 292 293 294 294 294 292 294 294
313 313 313 313 312 312 312 311 311 310 310 310 309 309 309 308 307 305 304 303 302 301 301 301 301 300 300 300 299 299 298 297 297 296 296 296 296 296 296 296 296 296 296 295 295 295 295 294 294 294 294 294 294 293 293 293 293 293 293 292 292 291 291 292 291 291 291 291 292 292 292 292 292 292 292 292 292 292 292 294 294 294 293 294 293
313 312 312 312 312 312 311 311 310 310 309 309 309 309 307 306 304 302 301 301 301 301 301 300 300 300 299 298 298 297 296 296 296 296 296 296 296 296 296 295 295 295 295 295 295 295 294 294 294 294 294 294 293 293 293 293 292 292 292 292 291 291 291 291 291 291 291 291 291 291 291 291 291 291 291 291 291 292 292 293 294 294 294 294 294
312 312 312 311 311 311 310 310 310 309 309 308 308 307 304 302 301 300 300 300 300 300 300 300 299 298 297 297 296 296 296 296 296 296 296 296 295 295 295 295 295 295 294 294 294 294 294 294 293 293 293 293 293 292 292 292 292 291 291 291 291 290 290 290 290 290 290 290 290 290 290 290 290 291 291 290 290 291 292 293 294 294 294 294 294
312 312 311 311 311 310 310 310 309 309 308 307 305 303 301 300 300 300 300 300 300 300 300 299 298 297 297 296 296 296 296 296 296 295 295 295 295 295 294 294 294 294 294 294 293 293 293 293 293 293 292 292 292 292 292 292 291 291 291 291 291 291 290 290 289 289 289 289 289 289 289 290 290 290 290 290 290 291 292 292 293 293 293 294 294
311 311 310 310 310 310 309 309 308 308 306 304 302 300 300 300 300 300 300 300 300 299 298 297 297 296 296 296 296 296 296 295 295 295 295 294 294 294 294 294 294 293 293 293 293 293 293 292 292 292 292 292 292 291 291 291 291 291 291 291 291 291 291 290 289 289 289 289 289 289 289 289 289 289 289 289 290 291 291 291 291 292 292 292 292
311 310 309 309 309 309 308 308 307 306 303 301 300 299 299 300 300 300 300 300 298 297 297 296 296 296 296 295 295 295 295 295 295 294 294 294 294 294 293 293 293 293 293 293 292 292 292 292 292 292 292 291 291 291 291 291 291 291 291 291 291 290 290 290 289 288 288 288 289 289 289 289 289 289 289 289 289 290 290 290 290 291 291 291 291
310 309 308 308 308 308 308 307 305 303 300 299 299 299 300 300 300 300 299 298 297 296 296 296 296 296 296 295 295 295 295 294 294 294 294 294 293 293 293 293 293 292 292 292 292 292 291 291 291 291 291 291 290 290 290 289 289 289 289 289 289 289 289 289 288 287 287 288 288 289 289 289 289 289 289 289 289 289 290 290 290 290 290 290 290
309 308 308 308 308 307 307 305 302 300 299 299 299 299 300 300 299 298 297 297 296 296 296 296 296 295 295 295 295 294 294 294 294 293 293 293 293 293 292 292 292 292 292 291 291 291 291 290 290 290 290 290 290 289 289 288 287 288 287 287 287 288 288 288 287 287 287 287 287 288 288 288 288 288 288 289 289 289 289 289 290 290 290 290 291
308 308 308 308 307 306 305 302 300 299 299 299 299 299 299 298 297 297 297 296 296 296 296 296 296 295 295 294 294 294 293 293 293 293 292 292 292 292 292 291 291 291 291 291 290 290 290 290 290 289 289 289 289 288 288 287 286 286 286 286 286 286 287 287 286 286 286 286 286 287 287 287 287 287 287 288 288 288 288 288 289 289 289 290 290
308 308 308 307 306 304 301 299 298 299 299 299 299 299 298 297 297 297 297 297 297 297 296 296 295 294 294 293 293 293 293 292 292 292 292 291 291 291 291 291 291 291 290 290 290 290 290 289 289 288 288 288 288 288 287 286 286 286 286 286 286 286 286 286 286 286 286 286 286 286 286 286 286 286 286 286 287 287 287 287 287 288 288 289 289
307 307 307 306 303 301 299 298 298 299 299 299 298 297 297 297 297 297 298 298 298 297 296 295 294 293 293 293 292 292 292 292 292 291 291 291 291 290 290 290 290 290 290 290 290 290 289 289 288 288 287 287 287 287 287 286 286 285 285 285 285 285 285 285 285 285 286 285 285 285 285 285 285 285 285 285 285 285 285 286 286 287 287 288 288
307 306 305 303 300 298 298 298 298 298 298 298 297 297 297 298 298 298 298 298 297 296 295 294 293 293 292 292 292 292 292 291 291 291 290 290 290 290 289 289 289 289 289 289 289 289 289 289 288 288 287 286 286 286 286 286 286 285 285 284 284 284 284 284 284 284 284 283 284 284 284 284 284 284 284 284 284 285 285 285 286 286 287 287 288
306 304 302 299 298 298 298 298 298 298 298 297 297 297 298 298 298 298 297 296 295 295 294 293 293 292 292 292 292 291 291 291 290 290 290 289 289 289 289 289 288 289 289 288 288 288 288 288 288 287 287 286 286 286 286 286 286 285 285 284 284 283 283 283 283 283 283 283 283 283 284 284 284 284 284 284 284 285 285 285 286 286 286 287 287
304 301 299 297 297 297 297 298 298 298 297 297 298 298 298 298 298 297 296 295 294 294 293 293 293 292 292 291 291 291 291 290 290 289 289 289 288 288 288 288 288 288 288 288 288 287 287 287 287 287 287 286 286 286 286 286 286 285 285 284 283 283 283 282 282 283 283 283 284 284 284 285 285 285 285 285 285 286 286 286 286 286 286 286 286
301 299 297 297 297 297 298 298 297 297 297 297 298 298 297 297 296 295 295 294 294 294 293 293 292 292 291 291 291 290 290 289 289 289 288 288 288 288 288 287 287 287 287 287 287 287 286 286 286 286 286 286 286 286 286 286 286 285 284 283 282 282 282 283 283 284 284 284 284 285 285 285 285 286 286 286 286 286 286 286 287 286 286 286 286
298 297 297 297 297 298 298 297 297 297 297 297 297 297 296 296 295 295 294 294 293 293 293 292 292 291 291 291 290 290 289 289 288 288 288 288 288 287 287 287 286 286 286 286 286 286 286 286 286 286 286 286 286 286 286 286 285 284 283 282 282 282 282 283 283 283 283 283 284 284 284 285 285 285 286 286 286 286 287 287 287 287 287 286 286
297 297 297 297 298 297 296 296 297 297 297 297 296 296 296 295 295 294 294 293 293 292 292 292 291 291 290 290 289 289 288 288 288 288 288 287 287 287 287 286 286 286 286 286 286 285 285 285 285 285 285 286 286 286 286 286 285 284 283 282 281 281 281 282 282 282 282 282 283 283 283 284 284 284 285 285 285 286 286 287 287 287 287 287 287
296 297 297 297 297 296 296 296 297 297 297 296 296 295 295 295 294 293 293 293 292 292 291 291 291 290 290 289 289 288 288 288 288 288 287 287 287 286 286 286 286 285 285 285 285 285 285 285 285 285 285 286 286 285 285 284 284 283 283 282 281 281 281 281 281 281 282 282 282 283 283 283 284 284 284 285 285 285 285 286 286 287 287 287 287
296 297 297 296 296 296 296 297 297 297 296 296 295 295 294 294 293 293 292 292 291 291 290 290 290 289 289 288 288 288 288 287 287 287 287 287 286 286 286 286 285 285 285 285 285 285 285 284 284 284 285 285 285 285 284 283 282 282 282 282 282 281 281 281 281 281 281 282 282 282 283 283 284 284 284 284 284 285 285 285 286 286 286 287 288
296 296 296 296 296 296 296 297 296 296 296 295 295 294 294 293 292 292 291 291 290 290 290 289 289 289 288 288 288 287 287 287 287 287 286 286 286 286 285 285 285 285 285 285 285 284 284 284 284 284 284 285 285 285 284 283 282 281 281 282 282 282 282 282 281 281 281 281 281 282 283 283 283 284 284 284 284 284 284 285 285 285 286 286 287
296 296 296 296 296 296 297 296 296 296 295 295 294 293 292 292 291 291 290 290 290 289 289 288 288 288 287 287 287 287 287 286 286 286 285 285 285 285 285 285 284 284 284 284 283 283 284 284 283 283 284 284 284 283 283 282 282 282 281 281 281 281 281 281 280 280 280 281 281 282 282 283 283 284 284 284 284 284 284 285 285 285 285 286 286
296 296 296 296 296 296 296 296 295 295 294 294 293 292 291 291 290 290 290 289 289 288 288 287 287 287 287 287 286 286 286 286 285 285 285 284 284 284 284 283 283 283 283 283 283 283 283 283 282 282 281 281 281 281 281 281 281 281 281 281 281 281 281 280 280 280 281 281 281 282 282 283 283 283 283 284 284 284 285 285 285 285 285 285 285
296 296 296 296 296 296 296 295 295 294 293 292 292 291 291 290 290 289 289 288 288 287 287 287 286 286 286 286 286 285 285 285 285 285 285 284 284 283 283 283 282 282 282 282 282 282 282 281 281 281 280 280 279 279 279 280 280 280 280 281 280 280 279 280 280 280 280 280 280 281 281 282 282 283 283 283 284 284 284 285 285 285 285 285 285
296 296 296 296 296 296 295 295 294 293 292 292 291 290 290 290 289 289 288 288 287 287 286 286 286 286 286 286 285 285 285 285 285 285 284 284 284 283 283 282 282 281 281 281 281 281 281 280 280 279 279 279 279 278 278 278 278 279 279 279 279 279 279 279 279 279 279 279 280 280 281 281 281 282 283 283 283 284 284 284 285 285 285 285 285
296 296 296 296 296 296 295 294 294 293 292 292 291 290 290 289 288 288 287 287 287 286 286 286 286 286 285 285 285 285 284 284 284 284 284 284 283 283 283 282 281 281 281 280 280 280 280 279 278 278 278 278 278 278 277 277 277 278 277 277 277 278 278 278 278 278 278 278 279 279 280 281 281 282 282 283 283 284 284 284 284 284 285 285 285
296 296 296 296 296 295 295 294 293 293 292 291 291 290 289 288 287 287 287 286 286 286 286 286 285 285 285 285 284 284 284 284 284 283 283 283 283 282 282 281 281 280 280 280 280 279 279 278 277 277 277 277 277 277 277 276 276 276 276 276 277 277 277 278 278 278 278 278 278 279 280 280 281 281 281 282 283 283 284 284 284 284 284 285 285
295 296 296 296 296 295 294 294 293 292 291 291 290 290 289 288 287 287 286 286 286 285 285 285 285 285 285 284 284 284 283 283 283 283 283 282 282 282 281 281 281 280 280 279 279 278 278 277 277 276 276 276 276 276 276 276 275 275 275 276 276 276 277 277 277 277 278 278 278 278 279 280 281 281 281 281 282 283 283 284 284 284 284 285 285
295 296 296 296 295 294 294 293 293 292 291 290 289 289 288 287 287 286 286 286 286 285 285 285 285 284 284 284 283 283 283 283 282 282 282 281 281 281 281 281 281 280 279 278 278 278 277 277 276 276 276 275 275 275 275 275 275 274 274 275 275 276 276 277 277 277 277 277 278 278 278 279 280 281 281 281 282 282 283 283 284 284 284 284 285
296 296 296 295 295 294 293 293 292 291 290 289 289 288 287 287 286 286 286 286 285 285 285 284 284 284 284 283 283 283 282 282 282 282 281 281 281 280 280 280 279 279 278 278 277 277 277 277 276 276 275 275 275 275 275 275 275 274 274 274 275 275 276 276 276 277 277 277 277 278 278 279 280 281 281 281 281 282 282 283 283 284 284 285 285
296 296 296 295 294 294 293 292 291 290 289 288 288 287 287 286 286 285 285 285 285 285 284 284 284 283 283 283 283 283 282 282 281 281 281 281 280 280 280 279 278 278 278 277 277 277 277 277 276 276 275 275 275 275 275 275 275 274 274 274 275 275 275 275 276 276 276 277 277 277 278 278 279 280 281 281 281 282 282 283 283 284 284 284 284
296 296 295 294 294 293 293 292 291 290 289 288 287 287 286 286 285 285 285 285 285 284 284 284 283 283 283 283 283 282 282 281 281 281 280 280 280 279 279 278 278 277 277 276 276 276 276 277 276 276 275 275 275 275 275 275 275 274 274 274 275 275 275 275 275 276 276 277 277 277 277 278 279 280 280 280 281 281 282 282 283 283 283 284 284
296 295 294 294 294 293 292 291 290 289 288 287 286 286 286 285 285 285 285 285 284 284 284 283 283 282 282 282 282 282 281 281 280 280 279 279 279 278 278 277 277 277 276 276 275 275 276 276 276 276 275 275 275 275 275 274 274 274 274 275 275 275 275 275 275 275 276 276 276 276 277 277 278 279 280 280 280 281 281 282 282 283 283 283 283
295 294 294 294 293 293 292 290 289 288 287 286 286 285 285 285 285 284 284 284 284 283 283 282 282 282 282 282 281 281 280 280 279 279 278 278 277 277 276 276 276 276 275 275 274 274 275 275 276 276 275 275 274 274 274 274 274 274 274 274 275 275 275 275 275 275 275 276 276 276 276 277 278 278 279 279 280 281 281 282 282 282 282 282 282
294 294 294 293 293 292 290 289 288 287 286 285 285 285 284 284 284 284 284 283 283 283 282 282 281 281 281 280 280 279 279 279 278 277 277 277 276 276 276 275 275 275 275 274 274 274 274 274 274 275 275 274 274 274 274 274 273 273 273 274 274 274 275 275 275 275 275 275 275 275 276 277 277 278 278 279 279 280 281 281 282 282 282 282 282
294 294 293 293 292 291 289 288 287 286 285 284 284 284 284 284 283 283 283 283 282 282 282 281 281 280 280 279 279 278 278 277 277 276 276 276 275 275 275 275 275 274 274 274 273 273 273 273 273 273 274 274 273 273 273 273 273 273 273 273 273 273 274 274 275 275 275 275 275 275 276 276 277 277 278 278 279 279 280 281 281 282 282 281 281
293 293 293 292 291 289 288 287 286 285 284 284 283 283 283 283 283 283 282 282 282 281 281 280 280 279 278 278 278 277 277 276 276 276 275 275 275 275 274 274 274 274 274 274 273 273 273 273 272 272 273 273 273 273 273 273 272 273 273 273 273 273 273 274 274 275 274 275 275 275 276 276 277 277 277 277 278 279 279 280 281 281 281 281 281
293 292 292 290 289 288 287 286 284 284 283 283 283 283 283 282 282 282 282 281 281 280 280 279 279 278 278 277 277 276 276 275 275 275 275 275 274 274 274 274 274 274 274 273 273 273 273 272 272 272 272 272 272 272 272 272 272 272 272 272 272 273 273 273 274 274 274 274 274 275 276 276 276 276 276 277 277 278 278 279 280 280 280 280 280
292 291 290 289 288 286 285 284 283 283 282 282 282 282 282 282 281 281 281 280 280 279 279 278 277 277 277 276 276 276 275 275 275 275 274 274 274 274 274 274 274 273 273 273 273 273 272 272 272 272 272 272 272 272 272 272 272 272 272 272 272 272 272 273 273 273 273 273 274 274 275 276 276 276 276 276 277 277 277 278 279 279 279 280 280
290 289 288 287 286 285 284 283 282 282 282 282 282 281 281 281 280 280 280 279 279 278 278 277 276 276 276 276 275 275 275 275 275 274 274 274 274 274 274 274 273 273 273 273 273 273 272 272 272 271 271 271 272 272 272 272 271 271 271 271 271 271 272 272 273 273 273 273 273 273 274 275 275 276 276 276 276 277 277 277 278 278 279 279 279
289 288 286 285 284 283 283 282 282 281 281 281 281 280 280 280 280 279 279 278 278 277 276 276 276 275 275 275 275 275 274 274 274 274 274 274 274 274 274 274 273 273 273 273 273 273 272 272 272 271 271 271 271 271 272 272 271 271 271 271 270 270 271 271 271 272 272 272 272 272 273 274 275 275 276 276 276 276 276 276 277 277 278 278 278
287 286 285 283 282 282 282 281 281 281 281 280 280 280 279 279 279 278 278 277 277 276 276 275 275 275 274 274 274 274 274 274 274 274 274 274 274 274 274 274 273 273 273 273 273 273 272 272 272 271 271 271 271 271 271 271 271 271 271 271 270 270 270 270 270 270 270 271 271 272 272 273 273 274 275 276 276 276 276 276 276 276 277 277 278
285 284 283 282 281 280 280 280 280 280 280 280 280 279 279 278 278 277 276 276 276 275 275 274 274 274 274 274 274 274 274 274 274 274 274 274 274 274 273 273 273 273 273 273 273 273 273 272 272 272 271 271 271 271 271 271 271 271 271 271 271 270 270 270 270 270 270 270 270 270 271 271 272 272 273 274 275 276 276 275 276 276 276 276 277
283 283 282 280 280 279 279 280 280 280 279 279 279 278 278 277 277 276 275 275 275 274 274 274 274 274 273 274 274 274 274 274 274 274 274 274 273 273 273 273 273 273 273 273 273 273 272 272 272 272 271 271 271 271 271 271 271 271 271 271 271 270 270 270 270 269 269 269 269 270 270 270 271 271 272 273 274 275 275 275 275 275 275 275 276
Wind_Speed
20 19 17 15 14 12 10 9 8 6 5 4 3 3 4 5 6 7 7 7 6 5 5 5 5 5 5 6 7 7 8 8 9 10 10 11 12 12 13 13 14 14 14 15 15 16 17 17 17 17 18 19 20 20 21 22 23 24 24 26 28 27 29 31 38 46 48 44 44 44 43 44 45 44 44 44 43 42 42 42 41 41 42 42 42
18 17 15 13 11 10 9 7 6 5 4 3 3 4 5 6 6 7 6 4 3 2 2 3 3 4 5 5 6 7 8 9 9 10 11 12 13 13 14 14 14 15 15 15 16 16 17 17 18 18 19 20 21 21 23 23 23 25 25 25 28 28 28 29 33 40 46 47 45 45 43 43 45 45 44 45 45 45 45 45 44 44 44 44 44
17 15 14 12 10 9 8 6 5 4 3 3 4 5 6 6 6 5 3 1 0 1 2 3 3 4 5 5 6 7 8 9 9 10 11 11 12 12 13 14 14 15 15 15 16 17 18 18 19 20 20 21 21 22 23 24 24 26 27 27 29 30 29 30 31 36 43 48 47 46 46 45 46 47 46 47 47 47 48 47 46 47 47 46 46
16 14 13 12 10 9 7 6 5 4 4 5 5 6 6 6 5 4 3 3 2 2 2 3 4 4 5 6 6 7 8 9 10 10 11 11 12 13 14 15 15 16 16 16 18 18 19 20 20 22 23 23 24 24 25 26 26 28 29 29 30 31 31 32 33 34 39 45 49 48 47 47 48 49 48 48 48 48 49 49 48 49 49 49 49
15 14 13 11 9 8 6 5 4 4 5 6 6 6 6 6 5 5 4 4 3 2 2 3 4 4 5 6 6 7 9 10 11 12 13 14 15 16 16 17 17 17 18 19 20 21 22 23 23 24 26 27 27 27 28 29 30 30 31 32 32 33 33 33 34 35 37 42 47 49 49 49 50 50 49 49 50 50 50 50 50 51 51 50 49
15 13 12 10 8 6 6 5 5 6 7 7 7 8 7 7 6 5 5 4 3 2 3 3 4 5 5 6 7 9 10 12 13 14 15 16 17 18 18 18 19 19 20 21 22 24 25 26 26 27 28 30 31 31 32 32 33 34 34 34 34 34 35 35 35 36 38 41 45 48 49 50 51 51 50 48 49 51 52 52 52 51 51 51 50
14 13 11 9 7 6 6 6 7 8 8 9 9 9 8 7 6 5 4 3 3 3 3 3 4 5 6 7 9 10 12 13 14 15 16 17 17 18 18 19 19 20 21 22 23 24 26 26 28 28 29 31 32 33 34 35 36 37 36 36 36 36 37 38 37 38 39 41 43 46 49 50 51 53 51 49 50 51 51 51 52 52 51 51 52
14 13 11 9 8 7 8 8 9 10 10 10 10 9 8 7 6 5 4 4 3 3 3 3 4 5 6 8 10 11 12 13 14 15 16 16 17 17 18 19 20 21 22 23 24 25 26 27 28 29 30 32 33 34 35 36 38 39 39 38 38 39 40 41 41 41 42 43 45 47 48 50 52 54 53 51 51 52 50 48 50 52 52 51 52
13 12 11 9 9 9 9 10 11 11 11 11 10 9 8 7 6 6 5 4 3 2 2 3 4 5 7 9 10 11 12 13 14 15 16 16 17 18 20 21 22 24 24 25 25 27 28 30 31 31 32 33 34 35 36 36 37 39 40 40 39 40 42 42 43 44 44 44 46 47 49 51 53 53 53 52 51 52 51 48 47 50 51 51 52
13 12 12 11 10 10 11 11 12 12 12 11 10 9 8 8 7 6 5 4 2 1 2 3 4 6 7 8 9 10 12 13 14 16 17 19 20 21 22 23 24 26 27 28 29 29 30 31 32 33 34 34 35 35 36 36 36 37 39 39 39 40 42 43 45 45 45 45 47 48 49 52 53 53 53 53 51 52 52 48 46 47 47 49 52
13 13 13 12 11 11 12 13 13 12 12 11 10 9 9 8 7 6 4 3 1 0 2 3 4 6 7 8 10 11 12 14 15 17 19 21 22 23 24 25 26 27 29 30 32 32 33 33 34 34 34 35 35 36 36 37 37 37 38 39 40 40 41 43 45 45 45 46 47 48 50 53 54 53 53 53 52 52 51 46 43 44 44 46 50
13 14 14 13 13 13 13 14 13 13 12 11 11 10 10 9 7 5 4 2 1 2 3 4 5 6 7 8 10 12 13 15 16 18 20 22 23 25 26 27 28 28 29 31 33 34 35 36 36 36 37 37 38 39 40 41 42 42 43 44 44 44 43 43 44 45 45 46 48 49 51 53 54 53 52 52 52 52 51 47 44 44 45 45 47
14 15 15 15 14 14 14 14 14 14 13 13 12 12 10 8 7 5 3 2 2 3 4 5 6 7 8 9 11 13 14 16 17 19 21 22 24 25 26 28 29 29 30 32 34 35 37 39 40 41 41 42 43 43 45 47 48 48 49 50 50 50 49 48 48 46 45 45 47 50 51 52 53 53 51 50 51 53 52 51 49 47 47 47 48
16 16 17 16 16 15 15 15 15 15 15 14 13 12 10 8 6 4 3 3 3 3 4 6 7 8 9 10 12 14 15 17 19 20 21 23 24 26 27 28 30 31 32 33 35 37 38 40 42 44 44 45 46 47 48 50 51 53 54 54 55 55 56 56 54 50 47 46 46 49 51 51 52 53 51 49 50 52 52 52 51 50 51 51 51
17 18 19 18 17 17 17 17 16 16 16 14 13 11 9 7 5 4 3 3 3 4 5 7 8 10 11 12 14 15 17 18 20 22 23 24 26 27 29 30 31 33 33 35 36 38 40 42 43 45 46 47 48 49 50 52 53 55 56 57 59 59 60 60 57 53 51 48 45 46 49 49 50 52 52 50 50 51 51 50 51 51 53 54 53
19 20 20 19 19 19 18 17 17 17 16 14 12 10 8 6 5 4 3 3 4 5 7 8 10 11 13 15 16 17 18 20 21 23 24 26 27 29 30 31 33 34 35 36 38 39 41 42 44 45 47 48 49 50 52 53 54 56 58 59 60 61 63 63 59 55 53 50 46 46 47 48 49 50 51 50 50 51 51 51 51 51 52 53 53
22 22 21 20 20 19 19 18 18 17 15 13 11 9 7 5 4 3 3 4 5 7 9 10 12 14 15 16 17 18 18 20 21 23 25 26 28 29 31 32 34 35 36 37 39 40 41 43 44 47 48 50 51 53 53 54 55 55 56 57 59 62 64 63 61 59 56 52 50 49 48 48 49 49 49 49 49 49 50 52 52 51 52 52 51
23 23 22 21 21 20 20 19 17 15 13 11 9 7 6 5 4 3 4 6 8 9 11 13 14 15 15 15 16 18 19 20 22 23 25 26 28 30 32 34 35 36 37 38 39 41 42 44 46 48 50 51 52 54 55 55 55 54 53 52 54 58 60 60 59 59 58 56 54 53 52 52 51 51 51 50 49 47 47 49 50 49 50 51 50
24 23 22 22 21 21 20 18 16 14 12 9 8 6 5 4 4 5 7 9 10 12 13 13 13 13 14 15 17 18 20 21 22 23 24 26 28 30 32 34 35 37 38 40 41 43 44 46 48 49 51 52 53 55 55 55 54 52 49 47 48 52 54 53 54 55 55 56 57 57 56 55 53 52 51 50 48 45 44 44 44 44 46 48 48
24 23 23 22 22 21 19 17 15 12 10 9 7 6 5 5 6 8 9 11 12 12 13 12 12 12 14 15 17 18 20 21 21 23 25 26 29 30 32 35 36 38 40 42 44 45 47 48 50 51 52 53 53 54 54 53 52 50 46 44 45 47 49 48 49 51 52 54 55 56 55 54 53 52 50 49 47 45 44 42 41 41 43 44 46
24 23 23 22 22 20 18 16 13 11 10 9 7 6 6 7 8 10 10 12 12 12 13 13 13 14 15 16 17 18 19 21 22 23 25 26 28 30 33 35 37 39 41 43 45 48 49 50 52 52 53 52 52 52 51 51 50 49 46 44 42 43 43 44 46 47 48 49 50 50 51 51 50 50 49 48 47 45 43 41 39 37 39 40 43
24 24 23 23 21 19 16 14 13 11 10 9 7 7 7 8 9 10 11 12 12 13 14 15 15 15 15 16 17 18 19 21 22 24 25 27 29 31 33 35 38 40 42 44 46 48 50 51 52 51 51 51 51 50 49 49 48 48 46 43 41 39 40 42 44 45 46 47 48 49 50 50 49 49 48 46 46 44 42 42 39 37 37 38 39
24 24 23 22 19 17 16 14 13 11 10 9 8 8 8 9 10 10 11 13 14 15 16 16 16 16 15 15 17 18 19 21 23 24 26 28 30 33 35 37 38 40 42 44 46 47 48 49 50 49 49 48 48 47 47 47 46 45 44 41 39 39 40 42 44 44 46 47 48 50 51 52 52 51 50 49 48 46 45 45 42 38 38 38 36
25 24 22 20 18 17 15 14 12 11 9 8 8 8 9 9 10 12 13 14 15 16 17 17 17 17 17 17 18 18 20 21 23 25 27 29 31 34 36 38 39 40 42 43 44 45 46 47 47 46 46 45 44 44 45 45 45 43 42 40 39 39 41 42 43 45 46 47 48 49 50 50 50 50 50 50 49 48 48 47 44 41 41 40 37
24 22 21 19 18 17 15 13 11 10 9 8 8 9 10 11 12 13 14 14 15 16 17 17 18 18 19 19 19 20 21 22 24 26 29 31 33 35 36 38 39 40 41 42 43 43 43 43 43 43 42 42 42 43 43 43 43 41 40 40 40 40 41 42 43 44 45 46 47 48 48 47 47 48 48 47 47 47 47 47 45 45 45 44 42
23 22 21 19 18 16 13 11 10 9 8 9 9 10 11 12 13 14 14 15 15 16 16 17 18 19 19 20 21 21 22 24 26 28 30 32 34 36 38 39 39 40 40 41 41 42 42 41 41 40 40 40 40 41 41 40 40 39 39 39 40 41 41 41 41 42 43 44 46 47 47 47 47 47 46 46 45 45 44 45 46 46 45 45 45
23 22 20 18 16 14 12 11 10 9 9 10 10 11 12 13 14 14 14 15 15 16 17 18 18 19 20 20 21 22 24 26 28 30 32 34 36 37 39 39 40 41 41 41 42 42 41 40 39 38 38 38 38 37 38 38 39 39 39 40 41 41 41 40 39 39 40 42 44 46 47 47 46 46 46 45 44 44 42 42 44 44 44 44 43
22 21 19 17 15 14 12 11 10 10 10 11 11 12 13 13 14 14 14 15 15 15 17 18 18 19 20 21 22 24 26 28 29 31 33 35 37 38 39 40 40 41 41 41 41 41 40 39 38 37 37 37 37 38 39 39 40 40 40 40 40 40 40 40 40 40 41 42 43 45 46 47 46 46 45 45 45 44 43 41 41 42 41 40 39
22 20 18 16 15 13 12 11 11 11 11 12 13 13 13 13 14 14 14 15 15 16 17 17 18 19 20 21 24 25 27 29 30 31 32 33 34 36 37 38 38 39 38 38 38 38 38 38 37 37 37 37 39 40 40 41 41 42 42 41 40 40 41 41 42 43 43 43 43 44 44 45 46 45 45 45 46 45 43 42 41 41 40 38 38
21 20 18 16 15 13 12 12 12 12 13 13 13 14 14 13 14 14 15 15 15 15 16 17 18 19 20 22 23 25 27 28 28 29 30 30 31 32 33 33 34 35 36 36 36 36 36 36 36 35 35 35 36 38 39 40 41 42 43 43 42 41 42 42 42 42 42 42 42 42 42 43 44 44 45 45 45 44 42 41 40 40 39 39 39
21 20 18 16 14 13 13 13 13 13 14 14 14 15 14 14 14 15 15 15 14 15 15 16 17 18 20 22 23 24 25 26 27 28 29 30 30 31 31 31 32 32 33 34 34 34 34 34 34 34 33 33 33 34 36 38 39 41 42 44 43 42 42 42 42 41 41 42 42 43 42 42 43 43 43 43 44 43 41 39 38 37 37 37 37
21 19 17 16 14 14 14 14 14 14 15 15 15 15 15 16 16 15 15 14 14 14 15 16 17 18 20 21 23 24 25 26 27 28 29 29 30 30 30 30 30 31 31 31 31 31 31 31 32 31 31 32 33 33 35 36 37 39 40 42 43 42 41 41 42 41 41 42 43 44 43 43 43 43 42 41 42 42 40 38 36 35 35 34 34
20 19 17 15 14 14 15 15 15 16 16 16 16 16 16 17 16 16 15 14 14 15 15 16 17 18 20 21 22 23 24 25 26 27 28 28 29 29 29 30 29 30 30 29 29 29 29 29 29 29 30 31 32 33 34 35 36 37 37 38 40 40 40 40 41 42 42 43 44 44 43 42 42 41 41 40 40 40 39 37 36 35 34 32 32
20 18 17 15 15 15 16 16 16 17 17 18 19 19 19 18 17 16 15 14 14 14 15 16 17 18 19 20 21 21 23 24 25 26 26 26 27 28 28 28 27 27 28 28 28 29 29 29 30 30 29 30 31 33 34 35 35 36 36 37 38 39 39 40 41 42 43 43 43 43 42 41 40 40 40 40 39 38 37 36 35 34 33 31 31
20 18 17 16 16 16 17 17 18 19 19 20 21 20 19 18 18 17 15 14 14 14 14 15 16 17 18 19 20 20 21 22 23 24 24 25 26 26 26 27 28 28 28 28 28 28 29 30 30 30 30 30 30 31 32 33 34 34 35 37 38 39 39 41 42 42 43 43 43 43 42 41 39 39 40 39 37 37 37 36 34 33 32 30 29
20 19 18 17 17 18 19 19 20 21 21 22 21 20 19 18 18 17 16 16 16 15 14 14 15 17 18 19 19 20 21 21 22 23 23 24 24 25 26 28 29 29 29 29 28 28 28 29 30 30 30 30 30 30 31 32 32 33 34 35 36 37 38 40 40 41 42 42 42 42 42 40 39 39 39 39 38 37 37 36 35 33 31 29 28
21 20 19 19 19 20 20 21 22 23 23 23 21 20 19 18 18 17 17 17 16 15 15 15 15 16 17 18 19 19 19 20 21 21 22 23 23 24 25 26 27 27 28 28 28 28 29 29 30 30 30 30 30 30 30 31 32 33 34 35 35 36 37 38 38 39 40 40 40 41 41 41 39 38 38 39 39 38 38 36 35 34 31 29 27
22 21 20 20 21 21 22 23 23 24 23 22 22 21 20 19 19 18 18 17 16 15 15 15 15 16 17 19 20 21 20 20 20 21 21 22 23 23 24 25 25 26 26 26 27 28 28 29 30 30 30 30 30 30 31 32 32 33 34 36 36 36 37 37 37 38 38 39 39 40 41 41 40 37 37 38 39 39 37 36 35 34 32 29 28
23 22 22 22 22 23 24 24 25 24 24 23 22 21 20 20 20 19 18 17 16 15 15 15 15 17 18 20 21 22 22 21 22 22 22 22 23 23 24 24 24 25 25 26 26 26 27 28 29 30 30 30 30 30 31 31 32 33 34 35 37 37 37 37 38 38 37 37 37 38 40 40 39 37 35 36 37 38 37 35 34 32 31 29 27
24 24 24 23 24 25 25 25 25 24 24 24 23 22 21 21 20 20 19 17 16 15 15 15 15 16 18 20 22 23 23 23 22 22 22 22 22 22 23 24 24 25 26 26 26 26 27 27 28 30 30 31 30 30 31 31 31 32 33 34 35 36 36 36 36 36 35 35 35 36 38 39 38 36 35 35 35 36 35 34 33 31 29 28 26
25 25 25 25 26 26 26 25 25 25 25 24 23 22 21 21 21 20 18 17 16 15 14 14 15 16 18 20 21 22 22 22 22 22 21 21 22 22 22 23 24 25 26 26 27 27 27 27 28 29 30 31 31 31 31 31 31 32 32 33 33 34 34 35 34 34 34 34 34 34 35 37 37 36 35 34 34 33 33 32 31 29 28 27 26
25 26 26 27 27 27 26 26 26 26 25 24 23 22 22 22 21 19 18 17 16 15 14 14 15 16 17 19 20 20 20 21 20 20 20 20 20 21 21 22 23 24 25 26 27 28 28 28 28 28 29 30 31 31 31 32 32 32 32 32 32 33 33 34 33 33 34 34 34 33 33 34 35 34 34 33 33 32 31 31 30 28 27 26 25
27 27 28 28 27 27 27 27 27 26 25 24 23 23 23 22 20 19 17 16 16 15 15 15 15 15 16 17 18 19 19 19 19 19 19 20 20 21 21 22 22 23 24 25 26 27 28 29 28 28 28 29 30 30 30 31 31 32 32 32 32 32 33 33 33 33 34 34 34 33 32 32 33 33 33 33 32 31 30 29 28 27 26 25 24
28 28 28 28 28 28 28 28 27 26 25 25 24 24 23 21 20 18 17 16 16 15 15 15 15 15 16 17 17 18 18 18 18 18 19 19 20 21 21 22 23 23 23 24 25 26 27 28 28 28 27 27 28 29 29 29 30 30 31 32 32 32 32 32 32 33 33 34 34 34 33 31 31 31 32 32 32 30 29 28 28 27 25 24 24
29 29 29 29 29 28 28 27 26 26 26 25 24 24 22 20 19 18 17 16 16 15 15 15 16 16 16 17 17 18 18 18 18 18 19 19 20 21 22 23 23 24 24 25 25 26 27 28 29 29 28 27 27 28 29 29 28 29 29 30 31 31 31 32 32 32 32 32 33 33 32 31 30 29 29 30 30 29 28 27 26 26 25 24 23
30 30 30 29 29 29 28 27 26 26 25 25 24 23 22 20 19 18 17 17 16 15 15 15 15 16 17 17 17 18 18 18 18 18 19 20 21 22 23 24 24 25 25 25 26 27 28 28 29 29 29 28 28 28 28 28 28 28 28 28 29 30 30 30 30 30 31 31 31 31 31 30 29 28 27 27 27 28 27 25 24 23 24 23 22
31 30 30 30 29 28 28 27 27 26 26 25 24 22 21 20 19 18 17 17 16 16 15 15 16 16 17 17 18 18 18 19 19 19 20 21 21 23 24 25 25 26 26 26 26 27 28 28 29 29 29 29 29 28 28 28 28 28 28 28 28 28 29 29 29 29 29 30 30 30 29 29 28 27 26 25 25 25 26 25 23 22 21 21 20
31 31 30 30 29 29 28 27 27 27 26 25 23 22 20 20 19 18 17 17 16 16 16 16 16 17 17 18 18 19 19 20 20 20 21 22 22 23 25 25 26 27 27 27 27 27 28 28 29 29 29 29 29 29 28 28 28 28 28 27 27 27 28 28 28 28 28 28 28 28 28 27 26 25 25 23 23 22 23 23 23 21 19 19 18
31 30 30 29 29 29 28 27 27 27 25 24 23 22 20 19 19 18 17 17 16 16 16 17 17 17 18 18 19 19 20 20 21 21 22 22 23 24 25 26 27 27 28 28 28 28 28 28 29 29 29 29 29 29 29 28 28 28 28 27 27 26 27 27 27 27 27 28 27 27 26 26 25 24 23 22 21 20 20 21 21 20 19 17 16
31 30 29 29 29 28 28 28 28 26 25 24 23 22 20 20 19 18 18 17 17 17 17 17 17 18 18 19 19 20 20 21 21 22 22 23 24 25 26 27 27 28 28 29 29 28 28 29 29 29 29 29 28 29 29 28 28 28 28 27 27 26 26 26 25 26 26 26 26 26 25 25 24 23 22 21 20 18 18 18 18 18 17 15 14
30 30 29 29 29 28 28 28 27 25 24 24 23 21 21 20 19 18 18 18 17 17 17 18 18 18 18 19 20 20 21 21 22 22 23 24 25 25 26 27 28 28 28 29 28 28 28 29 29 29 29 29 28 28 28 28 28 28 28 27 27 26 25 25 25 24 24 24 24 24 24 23 23 23 22 21 19 18 17 16 16 15 14 13 12
Wind_Direction
148 149 149 149 152 154 158 163 167 177 186 195 223 258 279 289 290 291 294 297 304 312 318 328 339 348 357 4 9 11 8 9 10 13 18 18 18 19 19 19 17 15 14 10 5 2 0 0 355 348 343 341 341 339 335 332 326 322 319 315 312 306 299 293 289 295 303 307 307 310 312 311 308 307 308 309 309 309 307 304 303 302 300 299 297
151 152 154 156 159 161 165 171 176 185 196 218 252 266 270 275 279 281 284 289 302 323 343 2 18 22 24 23 22 21 16 17 18 18 21 21 19 18 16 14 13 10 8 3 359 355 351 350 347 342 338 337 337 335 332 331 327 323 321 318 315 312 308 303 298 298 304 308 309 310 312 311 309 309 309 308 309 309 306 305 304 303 301 300 299
158 160 162 164 166 168 173 179 185 198 219 239 252 254 259 264 263 262 258 241 115 87 66 51 45 37 36 31 27 27 23 22 23 22 23 21 17 13 7 4 2 358 356 351 348 345 342 341 340 336 334 333 333 332 329 327 325 321 321 319 317 316 316 312 306 303 305 308 308 309 311 310 309 309 308 308 308 308 306 305 304 303 302 302 301
166 167 169 171 173 175 180 186 196 216 231 238 244 245 246 244 231 214 177 151 132 109 80 56 47 38 36 33 28 28 24 21 20 15 12 9 4 0 356 352 350 348 346 344 343 341 339 339 338 336 334 332 332 331 328 326 325 322 320 320 318 316 316 314 309 306 305 306 307 309 310 309 308 308 308 307 307 306 305 304 304 304 304 303 303
173 174 174 175 177 179 186 199 211 224 231 233 235 230 224 211 193 176 161 154 138 113 84 60 54 46 39 31 23 20 14 9 4 359 355 352 349 347 345 343 342 342 342 341 341 340 338 337 337 335 333 332 331 330 328 327 325 323 321 321 319 316 315 312 310 308 305 304 305 307 308 308 307 307 307 307 307 307 306 305 306 306 305 304 303
178 177 177 178 183 191 201 214 221 226 227 224 219 209 199 187 176 170 166 155 134 109 83 63 55 45 33 20 10 3 359 354 349 346 344 341 340 338 337 337 338 338 338 338 337 336 335 334 333 332 331 330 329 328 327 326 324 322 321 321 319 316 314 312 310 308 304 303 304 305 307 308 307 307 307 307 305 305 306 307 308 307 305 304 304
180 181 183 187 197 207 214 219 219 218 214 207 201 193 184 178 173 169 161 144 122 99 79 64 51 33 16 3 355 350 347 344 341 339 337 335 335 334 334 334 334 335 334 334 333 332 331 330 330 329 329 328 327 327 326 325 323 322 322 322 320 317 314 313 311 308 306 305 305 306 307 308 306 306 307 308 305 305 306 306 306 306 305 304 304
186 188 192 198 209 214 214 212 208 204 201 195 191 185 179 176 173 164 150 136 123 103 83 56 32 13 359 350 344 342 340 337 335 334 333 333 333 332 332 331 330 331 330 330 330 329 328 328 328 328 328 328 328 327 326 326 324 322 321 322 319 316 314 313 311 309 308 306 306 307 307 306 305 306 308 308 306 306 307 303 301 303 305 304 303
194 197 200 205 212 212 208 205 201 197 196 191 185 181 178 176 170 160 150 145 133 104 67 29 10 356 347 342 337 337 336 333 332 332 331 331 331 331 331 330 329 329 328 328 328 328 327 327 327 328 328 328 327 327 326 325 323 321 320 319 317 314 313 311 309 308 307 304 304 305 304 303 304 305 306 307 305 305 305 300 295 299 302 301 301
203 205 206 207 209 208 205 202 200 197 193 188 183 181 180 176 167 162 158 151 138 90 23 360 351 343 339 336 333 333 334 333 333 332 330 330 330 330 330 330 330 329 328 327 327 327 326 326 326 327 327 327 326 325 324 322 320 318 316 315 313 311 310 309 308 307 304 302 302 303 301 299 302 304 303 304 304 302 300 297 294 296 297 297 298
209 209 208 207 206 206 204 202 199 195 189 185 184 183 179 174 169 168 166 158 160 322 337 334 333 333 332 333 333 333 334 334 333 332 331 330 330 331 330 330 330 330 329 328 327 327 327 327 327 327 327 327 326 325 323 321 319 317 314 313 312 310 308 307 306 305 304 301 301 301 298 297 301 303 301 302 302 301 298 296 294 294 294 292 293
213 211 207 206 205 203 202 200 196 191 188 186 186 182 178 176 175 176 179 186 242 297 317 323 326 332 334 335 334 333 332 333 332 331 331 330 330 331 330 330 330 331 330 329 329 329 328 328 328 328 329 329 327 326 324 321 319 318 316 314 312 310 309 306 305 304 303 301 299 298 297 297 299 300 300 301 301 299 297 295 292 291 290 289 287
213 210 205 203 203 201 199 196 193 191 190 188 185 182 180 182 185 190 202 231 281 302 314 322 329 335 336 335 334 332 332 332 331 331 331 330 330 330 330 330 330 331 332 330 330 329 329 328 327 327 328 328 328 326 324 321 319 317 315 313 312 310 309 307 306 304 302 300 297 296 297 297 296 296 298 300 298 296 294 293 292 290 288 286 285
211 206 203 201 200 198 196 194 193 193 191 188 186 185 188 193 199 210 231 262 292 309 321 329 332 334 335 335 333 332 332 331 330 330 329 329 329 328 329 329 329 330 330 329 329 329 329 329 328 327 327 326 326 324 321 319 316 314 312 311 310 309 308 308 308 307 305 302 296 294 297 297 294 295 298 297 295 293 292 291 292 290 288 287 286
207 203 202 200 199 198 196 195 195 194 192 190 189 192 197 203 213 230 250 273 298 318 327 331 332 332 334 335 335 333 332 332 330 330 329 328 328 328 327 327 327 327 328 328 328 328 329 328 327 326 325 323 322 320 319 317 315 313 312 311 310 309 308 308 310 310 308 305 299 296 296 296 295 295 296 295 293 292 291 290 290 290 288 289 288
204 202 202 201 200 199 198 197 196 194 193 193 194 198 204 212 226 241 262 291 312 323 327 329 331 332 333 334 334 334 333 332 331 330 329 328 328 327 327 326 326 326 326 327 328 328 328 326 324 322 321 319 318 316 316 317 316 313 313 312 311 309 307 307 310 311 309 306 302 298 296 295 294 294 294 294 292 292 292 291 290 288 287 287 286
204 203 203 203 202 201 198 196 196 195 196 197 198 203 209 218 234 257 286 308 318 324 326 328 329 331 333 333 333 334 334 333 332 331 330 329 328 327 326 326 325 325 326 327 326 326 325 322 320 318 317 316 315 315 316 317 316 315 315 314 312 310 309 309 311 310 308 307 303 301 298 296 294 293 292 291 290 291 291 289 287 286 285 285 283
204 204 205 204 202 200 198 196 196 197 198 199 203 211 219 229 249 275 299 310 318 323 327 329 331 332 334 335 335 336 335 334 333 331 330 329 328 327 326 325 324 324 324 324 323 322 320 318 317 317 316 316 315 315 315 317 318 318 318 316 314 313 312 313 313 311 309 308 306 304 301 299 298 297 295 294 293 293 291 287 286 286 284 282 281
205 205 205 203 200 198 196 196 197 198 200 205 210 219 230 246 269 291 304 312 318 322 325 329 332 334 336 337 337 335 333 332 331 330 329 328 327 326 325 323 323 322 322 321 321 320 319 317 317 317 317 317 317 317 318 319 321 321 319 316 314 312 314 315 313 311 310 308 306 304 303 303 303 303 302 302 302 301 298 294 292 289 285 282 282
205 203 202 200 197 196 195 196 198 200 205 212 218 228 245 265 285 299 307 313 317 321 326 331 335 338 337 335 333 331 329 328 327 326 326 326 325 324 322 321 320 320 319 319 319 318 318 317 316 318 319 320 321 321 321 322 322 321 318 315 313 312 314 313 310 309 308 307 307 308 308 309 309 309 309 308 307 306 303 300 298 293 287 285 283
203 201 200 197 196 196 197 198 201 205 210 218 225 240 261 279 293 302 307 313 318 324 329 333 334 333 331 328 326 325 324 323 324 324 323 323 323 321 320 320 320 319 319 319 319 319 319 319 318 319 321 322 323 323 323 323 322 320 318 316 314 312 312 312 311 313 314 316 317 317 316 316 315 313 310 308 309 308 305 303 301 297 292 287 285
201 199 198 197 197 198 199 201 206 211 216 224 235 253 272 285 295 303 310 317 322 326 326 325 323 321 321 320 319 319 320 321 322 322 322 322 321 321 321 321 321 321 320 320 320 321 321 320 320 322 323 323 323 324 324 323 321 320 319 319 318 317 316 317 319 320 320 320 319 317 317 317 316 315 312 310 311 310 306 303 301 299 297 293 290
200 199 198 199 199 200 204 207 211 215 222 233 247 264 278 289 300 309 315 319 319 317 315 312 311 310 311 313 314 316 318 319 320 321 322 322 322 322 322 322 322 323 323 322 322 322 322 322 322 324 325 325 324 324 324 323 322 321 323 325 325 324 324 325 324 322 320 318 316 315 314 314 314 313 312 311 310 309 306 303 299 300 302 301 296
200 199 199 201 202 205 209 211 215 220 230 244 260 275 287 298 306 310 311 310 308 307 306 305 304 305 307 310 313 315 317 318 320 321 322 322 323 323 323 324 324 325 324 324 324 324 324 324 325 325 325 325 325 325 324 323 323 324 327 329 329 329 328 327 325 322 319 318 317 316 316 315 314 313 313 313 311 310 307 303 300 301 304 303 299
200 200 202 204 206 210 212 214 220 230 242 258 274 286 294 300 302 301 301 301 301 301 302 302 304 306 309 312 314 316 318 320 321 322 323 323 324 324 324 325 326 327 327 327 326 325 325 325 325 325 325 326 325 324 324 324 325 328 331 333 333 331 329 326 324 322 320 319 318 318 318 317 317 316 316 316 315 313 311 309 306 304 303 302 299
202 203 206 208 210 212 215 220 231 244 257 271 282 288 292 295 295 294 295 296 297 298 299 301 304 306 309 312 315 318 321 322 323 324 324 325 325 326 326 327 328 329 328 327 326 325 325 327 327 326 326 326 326 325 326 328 330 333 336 337 335 332 329 327 326 325 324 322 321 320 319 318 318 318 318 318 317 315 313 313 310 306 304 303 299
205 206 209 210 213 216 221 229 241 254 264 273 280 283 286 289 288 289 290 290 292 294 296 299 303 305 309 312 315 319 323 324 324 325 325 326 327 327 328 329 329 329 328 327 326 327 328 328 327 327 326 326 326 327 329 332 335 336 336 336 334 331 330 331 331 329 328 326 324 322 321 320 319 319 319 318 317 316 316 315 311 308 307 305 299
208 210 212 213 216 221 228 237 247 257 266 271 276 278 279 281 281 281 283 285 288 292 295 299 303 307 310 313 317 321 324 326 326 327 327 328 329 328 329 329 329 329 329 328 328 328 329 328 327 327 327 328 329 331 333 335 336 335 334 334 333 332 334 337 337 335 332 330 326 324 324 323 321 320 320 318 317 317 317 316 313 310 309 306 300
211 213 214 216 221 227 234 243 251 258 265 268 271 272 273 273 274 276 280 285 289 293 297 302 306 310 314 318 320 322 325 327 329 329 330 330 330 329 329 330 330 329 329 329 329 329 329 329 329 330 331 332 333 335 335 335 333 332 332 334 335 337 339 342 341 338 335 332 330 328 327 324 322 320 318 317 316 316 317 317 315 313 311 308 304
213 215 217 220 227 233 240 248 254 258 262 264 264 264 265 267 272 276 280 285 290 295 300 305 309 313 318 322 324 325 325 326 327 328 329 330 331 331 331 331 330 329 329 330 331 331 330 329 331 334 336 336 336 335 333 332 332 332 331 332 337 341 342 343 343 340 337 335 334 332 329 326 323 321 319 317 317 316 315 316 316 315 312 310 307
216 219 221 226 232 238 244 250 253 255 257 259 260 262 264 267 271 274 278 283 288 294 300 305 311 315 318 321 323 325 325 325 326 326 327 329 330 331 332 332 333 333 332 333 332 331 330 330 331 334 335 335 335 335 334 333 335 335 333 333 336 341 343 343 344 343 341 340 338 334 332 330 328 326 323 322 321 319 317 318 318 317 314 311 309
220 224 227 232 237 243 248 252 254 255 255 255 256 260 265 268 269 271 275 281 287 293 299 305 310 315 317 320 322 324 324 325 325 326 327 328 329 330 332 334 335 336 336 335 333 332 331 330 331 332 333 333 334 335 337 337 337 338 339 337 337 340 343 344 345 345 345 342 340 337 335 334 331 329 328 327 326 325 324 322 321 320 318 316 314
224 228 232 237 243 249 253 255 257 258 258 258 259 260 262 264 265 267 271 278 284 292 299 304 309 313 317 320 323 323 324 325 325 325 326 328 329 330 332 335 338 338 336 336 336 335 333 331 331 332 333 332 332 333 335 338 338 340 341 340 338 340 343 344 344 345 345 342 340 339 338 336 334 333 331 330 329 328 327 326 325 324 321 319 318
228 231 236 243 250 254 257 258 259 259 259 259 259 259 258 259 261 264 269 274 282 290 296 301 307 312 317 319 321 322 323 324 324 325 327 329 330 331 333 335 337 337 338 340 340 339 337 334 333 334 334 333 332 332 332 335 338 339 340 339 339 340 342 343 344 345 343 341 341 340 340 339 339 338 336 333 331 330 328 327 325 324 322 320 320
231 234 241 249 254 257 258 259 258 258 257 256 257 256 256 258 261 265 271 276 281 286 293 300 307 312 315 318 320 321 322 323 324 326 328 329 330 332 332 333 335 338 342 345 345 344 342 339 337 337 336 335 334 333 332 333 337 338 338 338 338 339 340 342 344 343 341 341 342 343 342 341 341 341 340 338 336 333 331 328 325 323 321 319 320
234 240 248 254 256 257 258 257 257 256 255 255 256 256 257 260 264 269 275 278 281 287 295 303 309 312 314 316 318 319 320 322 324 326 328 330 331 332 333 335 337 340 343 345 346 345 345 343 341 341 340 338 336 334 332 332 333 334 335 336 336 337 338 341 342 341 341 341 342 343 343 342 342 343 344 343 341 339 337 334 331 328 326 325 325
239 246 252 254 255 255 256 256 256 255 255 255 256 257 259 262 266 270 273 276 280 288 297 303 308 311 311 311 312 315 318 321 324 326 328 328 329 331 333 335 337 339 341 343 344 344 344 344 343 343 343 342 340 337 334 332 331 331 332 333 333 334 336 338 339 339 339 339 341 343 344 344 343 344 346 346 346 344 343 341 338 336 334 334 335
243 249 252 253 253 255 256 256 256 256 255 255 256 257 259 261 264 267 269 273 280 288 296 302 305 307 308 309 310 314 318 320 322 324 324 325 326 328 331 333 334 336 338 340 341 341 342 342 342 342 343 344 343 341 339 336 334 333 333 332 332 333 334 334 336 336 337 337 340 344 346 346 344 345 347 349 348 347 347 347 345 342 340 340 341
245 249 250 251 253 255 256 257 256 255 255 255 255 257 258 260 262 264 267 272 279 286 292 298 301 304 307 309 311 314 316 319 321 322 323 326 327 329 330 331 332 333 334 335 336 337 338 339 338 339 340 341 342 343 342 341 339 339 338 337 336 337 338 338 338 338 337 336 339 344 347 347 345 345 348 350 350 349 349 350 349 347 345 344 344
247 249 249 251 254 256 256 257 256 255 254 254 254 255 257 258 260 263 266 270 277 282 288 294 298 302 306 308 310 313 315 318 321 324 326 328 329 330 331 331 331 331 332 332 332 332 333 334 335 335 336 338 339 340 341 342 341 341 342 342 341 342 343 343 343 342 340 339 340 344 347 348 347 347 349 350 351 350 350 350 350 350 350 350 350
246 249 251 253 256 256 256 255 254 253 252 253 253 254 256 257 258 261 264 268 274 280 286 292 297 301 305 307 309 312 315 318 321 324 327 328 330 331 332 332 333 333 332 331 330 329 329 330 331 331 332 334 335 336 338 339 340 340 341 342 342 343 344 344 344 345 346 344 343 344 347 349 349 350 351 351 350 350 350 350 350 351 352 354 356
248 251 254 255 256 256 254 253 253 252 251 251 252 252 254 255 256 259 262 267 274 279 284 291 296 299 303 306 308 311 314 317 321 323 325 327 328 330 331 332 333 333 334 333 332 330 329 328 328 327 327 329 330 332 334 336 336 337 337 338 340 341 342 342 343 345 347 347 346 346 347 348 350 351 352 352 350 349 350 351 351 352 354 356 358
250 252 254 255 254 253 252 251 251 250 249 249 250 250 251 253 255 258 262 267 273 279 284 289 294 298 302 305 307 310 313 316 318 320 322 324 326 327 328 329 330 331 332 332 332 330 329 329 328 326 325 325 325 327 329 331 332 332 333 334 336 338 339 339 340 343 346 347 347 346 346 347 348 351 354 353 350 349 350 351 351 352 355 357 358
251 253 254 253 252 250 249 249 249 248 247 247 248 249 250 252 254 258 262 267 272 278 284 288 293 297 300 303 305 308 310 312 315 318 320 322 323 324 324 325 326 327 327 328 328 328 327 328 328 327 327 325 323 322 323 325 326 327 328 329 331 333 335 336 337 340 343 344 345 346 346 345 345 348 353 355 352 350 350 351 352 352 354 356 359
253 253 252 251 249 249 248 247 246 245 245 246 247 248 249 251 254 257 261 266 271 276 282 287 292 296 299 301 303 305 307 310 313 317 319 320 321 322 322 323 324 324 325 325 324 324 323 324 325 327 328 328 326 323 321 320 321 321 323 324 326 328 330 332 333 336 339 340 341 343 344 343 342 344 349 353 354 353 352 351 351 352 354 356 359
252 251 250 249 249 248 247 246 245 244 244 245 246 247 249 250 253 256 261 265 270 275 280 285 289 293 297 300 302 304 307 310 313 316 318 319 320 320 320 321 321 322 322 323 322 321 320 320 320 322 324 326 327 327 325 323 321 320 319 320 321 323 325 326 328 331 334 336 337 338 340 341 341 340 341 345 350 353 354 353 353 353 354 355 357
249 248 249 248 247 246 245 244 243 243 244 245 245 246 247 249 252 256 260 264 269 274 279 283 287 292 295 299 301 303 306 309 312 315 317 318 318 318 318 317 318 318 319 319 319 318 317 316 317 317 319 321 323 325 326 326 325 323 321 320 319 320 321 322 324 327 329 331 332 333 334 337 339 338 337 338 342 347 351 354 356 356 355 354 356
248 248 247 246 245 244 243 242 242 242 243 244 244 244 246 249 253 257 261 265 269 274 278 282 287 291 294 297 300 303 306 308 311 314 315 316 316 316 315 315 317 317 316 317 316 315 313 313 313 314 315 316 317 320 322 324 325 326 325 323 322 321 320 321 322 324 326 327 327 328 329 331 334 335 334 334 335 339 344 349 354 357 358 356 356
247 247 246 245 244 243 242 241 241 241 242 242 243 244 246 249 253 256 260 264 268 273 277 281 285 289 292 295 298 302 304 306 309 311 312 313 314 314 314 315 316 317 317 317 316 314 312 311 310 310 311 312 313 315 317 320 322 324 326 326 325 323 321 321 322 323 323 323 323 324 324 326 328 330 331 331 332 332 334 339 346 353 357 358 359
245 244 244 243 242 241 240 240 240 240 241 242 243 245 247 250 253 255 259 263 266 271 275 279 283 287 290 293 297 300 302 305 307 309 311 312 313 314 315 316 316 316 317 316 316 315 314 311 308 307 307 308 309 311 313 315 317 319 323 326 326 324 323 322 322 323 322 322 322 322 323 323 324 325 326 328 329 329 329 330 336 343 349 354 1
243 242 242 241 239 239 239 239 239 240 240 241 243 245 247 250 252 254 258 262 267 270 274 278 282 286 289 293 296 299 301 304 307 310 312 313 314 315 316 317 317 317 317 317 317 316 315 313 310 308 306 306 306 307 308 310 312 314 317 321 324 324 324 324 323 322 322 322 322 322 323 323 323 323 324 325 327 328 328 328 329 333 338 342 350